Regional Weather Roundup
Issued by NWS

Home | Current Version | Previous Version | Text Only | Print | Product List | Glossary Off
Versions: 1 2 3 4 5 6 7 8 9 10 11 12 13 14 15 16 17 18 19 20 21 22 23 24 25 26 27 28 29 30 31 32 33 34 35 36 37 38 39 40 41 42 43 44 45 46 47 48 49 50

000
ASUS43 KLOT 061221
RWRIL

ILLINOIS REGIONAL WEATHER ROUNDUP
NATIONAL WEATHER SERVICE CHICAGO/ROMEOVILLE IL
700 AM CDT MON JUL 06 2015

NOTE: "FAIR" INDICATES FEW OR NO CLOUDS BELOW 12,000 FEET WITH NO
SIGNIFICANT WEATHER AND/OR OBSTRUCTIONS TO VISIBILITY.

* THESE STATIONS ARE NOT UNDER NWS QUALITY CONTROL. THEY ALSO MAY NOT
  REPORT WEATHER SUCH AS PRECIPITATION OR FOG.

ILZ001-002-007-009-015-016-024-061300-
NORTHWEST ILLINOIS

CITY           SKY/WX    TMP DP  RH WIND       PRES   REMARKS
MOLINE         CLOUDY    73  68  84 S9        29.91F HAZE
6HR MIN TEMP:  68; 6HR MAX TEMP:  73;

STERLING*      PTSUNNY   70  66  88 SE7       29.95S
SAVANNA*       CLOUDY    70  66  89 SE6       29.91F FOG
$$

ILZ003-004-008-010-011-017-018-061300-
NORTH CENTRAL ILLINOIS

CITY           SKY/WX    TMP DP  RH WIND       PRES   REMARKS
ROCKFORD       CLOUDY    68  63  84 S8        29.97S HAZE
6HR MIN TEMP:  65; 6HR MAX TEMP:  68;

FREEPORT*      PTSUNNY   67  65  92 S8        29.96S FOG
ROCHELLE*      MOSUNNY   65  64  95 SE7       29.98S FOG
DE KALB*       MOSUNNY   64  62  93 S8        30.00S FOG
PERU*          MOSUNNY   69  64  85 S6        29.99R HAZE
$$

ILZ005-006-012>014-019>023-061300-
NORTHEAST ILLINOIS

CITY           SKY/WX    TMP DP  RH WIND       PRES   REMARKS
CHICAGO-OHARE  SUNNY     69  65  86 S6        30.00R FOG
6HR MIN TEMP:  64; 6HR MAX TEMP:  70;

CHICAGO-MIDWAY MOSUNNY   72  66  81 S6        30.01R
6HR MIN TEMP:  71; 6HR MAX TEMP:  74;

AURORA         SUNNY     69  63  81 S7        30.00R HAZE
6HR MIN TEMP:  63; 6HR MAX TEMP:  69;

LANSING*       SUNNY     67  64  89 S5        30.02R FOG
JOLIET*        SUNNY     69  67  91 CALM      30.01R FOG
WAUKEGAN       SUNNY     69  63  81 S7        29.98S HAZE
6HR MIN TEMP:  60; 6HR MAX TEMP:  69;

DUPAGE AIRPORT SUNNY     68  65  90 S8        29.99R FOG
6HR MIN TEMP:  63; 6HR MAX TEMP:  68;

KANKAKEE*      SUNNY     68  66  94 S7        30.04R FOG
WHEELING       SUNNY     69  64  84 S5        30.01R HAZE
6HR MIN TEMP:  64; 6HR MAX TEMP:  71;

MORRIS*        SUNNY     67  64  90 S5        29.99R FOG
ROMEOVILLE*    SUNNY     68  65  89 S6        30.01S FOG
NORTHERLY ISL    N/A     71  63  75 S7          N/A
$$

LMZ740>746-061300-
SOUTHERN LAKE MICHIGAN

STATION/POSITION SKY/WX   TEMP    WIND        PRES    VSBY  WAVE
                          AIR SEA DIR/SP/G                  HT/PER
                          (F)     (DEG/KT/KT) (MB)    (MI)  (FT/S)
HARRISON CRIB              70     180/ 13/ 13   N/A
BURNHAM HARBOR             71     210/  7/ 10   N/A
CALUMET HARBOR             69     200/  4/  9   N/A
BURNS HARBOR               69     190/ 10/ 16 1016.6S
MICHIGAN CITY              69     150/ 12/ 15   N/A
MICHIGAN CITY 6N           67 66  190/  6/  8   N/A           1
ST. JOSEPH                 67 65  230/  8/ 10   N/A           1/ 2
$$

ILZ025>027-034>036-040-047-049-050-058-095>099-061300-
WEST-CENTRAL ILLINOIS

CITY           SKY/WX    TMP DP  RH WIND       PRES   REMARKS
QUINCY         PTSUNNY   74  71  91 S10       29.96R
GALESBURG*     PTSUNNY   70  68  93 S6        29.95S FOG
MACOMB*        PTSUNNY   70  69  98 S8        29.97S FOG
JACKSONVILLE*  MOSUNNY   74  70  87 S9        29.98S FOG
PITTSFIELD*    PTSUNNY   72  70  93 S6        29.99R FOG
$$

ILZ028>032-037-038-041>044-048-051>054-059>061-061300-
CENTRAL ILLINOIS

CITY           SKY/WX    TMP DP  RH WIND       PRES   REMARKS
PONTIAC        SUNNY     68  66  94 SE5       30.01R FOG
BLOOMINGTON    SUNNY     69  66  90 S10       30.03R FOG
DECATUR        MOSUNNY   70  65  84 S12       30.02F HAZE
PEORIA         MOSUNNY   72  66  81 S8        29.98R HAZE
6HR MIN TEMP:  69; 6HR MAX TEMP:  73;

LACON*         MOSUNNY   69  65  88 SE6       29.98R FOG
LINCOLN*       MOSUNNY   70  66  87 S8        30.00R FOG
SPRINGFIELD    MOSUNNY   73  67  81 S9        30.00R HAZE
6HR MIN TEMP:  71; 6HR MAX TEMP:  73;

TAYLORVILLE    SUNNY     68  64  88 SE9       30.01F FOG
$$

ILZ033-039-045-046-055>057-062-063-061300-
EAST-CENTRAL ILLINOIS

CITY           SKY/WX    TMP DP  RH WIND       PRES   REMARKS
CHAMPAIGN      MOSUNNY   69  66  90 S7        30.05R FOG
DANVILLE*        N/A     67  66  99 CALM      30.03R FOG
RANTOUL*       MOSUNNY   68  67  98 S5        30.04R FOG
MATTOON        SUNNY     69  67  93 S5        30.05S FOG
PARIS*           N/A     68  67  99 S5        30.06F FOG
$$

ILZ079-100>102-061300-
SOUTHWEST ILLINOIS

CITY           SKY/WX    TMP DP  RH WIND       PRES   REMARKS
ALTON          MOSUNNY   70 N/A N/A SE3       30.02R FOG
BELLEVILLE     SUNNY     71  71 100 SE7       30.02R FOG
CAHOKIA*       SUNNY     73  70  90 SE7       30.02R FOG
SPARTA*        PTSUNNY   71  70  97 SE6       30.05S FOG
$$

ILZ064>066-069>071-074>076-080>082-084>086-088>090-092>094-061300-
SOUTH-CENTRAL ILLINOIS

CITY           SKY/WX    TMP DP  RH WIND       PRES   REMARKS
CARBONDALE     CLOUDY    74  71  91 S7        30.06S FOG
6HR MIN TEMP:  69; 6HR MAX TEMP:  74;

CAIRO*         CLOUDY    74  72  94 S9        30.09R
EFFINGHAM*     SUNNY     68  65  90 SE6       30.06S FOG
MARION         CLOUDY    73  72  94 S8        30.08R FOG
MT. VERNON     SUNNY     70  64  83 CALM      30.07S
CENTRALIA*     SUNNY     71  67  89 SE3       30.05S FOG
SALEM*         SUNNY     72  68  88 CALM      30.06S FOG
$$

ILZ067-068-072-073-078-083-087-091-061300-
SOUTHEAST ILLINOIS

CITY           SKY/WX    TMP DP  RH WIND       PRES   REMARKS
LAWRENCEVILLE  SUNNY     69  67  93 CALM      30.09R FOG
FLORA*         SUNNY     68  67  98 CALM      30.07S FOG
FAIRFIELD*     PTSUNNY   71  69  93 S3        30.07R FOG
HARRISBURG*    SUNNY     68  68 100 CALM      30.09R FOG
ROBINSON*      SUNNY     68  67  97 SE5       30.09R FOG
CARMI*         PTSUNNY   70  65  86 S3        30.08R FOG
$$

ABBREVIATIONS USED IN REMARKS
   TC - TEMPERATURE IN CELSIUS
  WCI - WIND CHILL INDEX
   HX - HEAT INDEX
  VSB - VISIBILITY
$$




USA.gov is the U.S. government's official web portal to all federal, state and local government web resources and services.